SIREN (RS30S)

Last updated on Sat Jul 06 2024 00:02:59 GMT+0000 (Coordinated Universal Time)

1 53384U 22096Q 24187.44433454 .04869113 25146-5 79169-3 0 9995 2 53384 97.3594 110.9054 0008897 201.3456 158.7470 16.33507217107336

Satellite not in orbit